Hlavní strana
METAR-TAF:

METAR-TAF

Letiště :

Atlanta, Georgie, Spojené státy americké

zeměpisná šířka: 33-54-43N, zeměpisná délka: 084-56-26W, výška: 393 m

Aktuální stav počasí

Zpráva byla vytvořena před 22 minutami, v 18:15 UTC
Severoseverozápadní vítr 9 kt
Teplota 6°C
Vlhkost vzduchu 100%
Tlak 1020 hPa
Viditelnost: 11.3 km
Zataženo ve výšce 1800 ft
slabý déšť

METAR: KPUJ 151815Z AUTO 33009KT 7SM -RA OVC018 06/06 A3012 RMK AO2

Čas: 13:37 (18:37 UTC)


TAF: chybějící

Stav a předpovědi počasí z více než 4 000 letišť (zprávy METAR a TAF).

Červené a žluté tečky na mapě představují dostupné meteorologické stanice.

Když kurzor umístíte na tečku, zobrazí se název stanice.

Pak kliknutím zobrazíte stav a předpověď počasí.

Chcete-li změnit mapu, kliknutím na zelené tlačítko se znaménkem +mapu přiblížíte, kliknutím na zelené tlačítko se znaménkem – mapu oddálíte a kliknutím na zelené šipky přejdete na sousední mapy.


METAR-TAF: